TimeEST,TemperatureF,Dew PointF,Humidity,Sea Level PressureIn,VisibilityMPH,Wind Direction,Wind SpeedMPH,Gust SpeedMPH,PrecipitationIn,Events,Conditions,WindDirDegrees,DateUTC
12:34 AM,12.2,8.6,85,29.88,1.8,ENE,8.1,-,0.00,Snow,Light Snow,70,2013-01-20 05:34:00
12:53 AM,12.0,8.1,84,29.92,2.0,ENE,10.4,-,0.00,Snow,Light Snow,60,2013-01-20 05:53:00
1:12 AM,12.2,8.6,85,29.85,1.8,ENE,8.1,-,0.01,Snow,Light Snow,70,2013-01-20 06:12:00
1:19 AM,12.2,8.6,85,29.85,1.5,ENE,8.1,-,0.01,Snow,Light Snow,70,2013-01-20 06:19:00
1:53 AM,12.0,8.1,84,29.90,1.5,East,10.4,18.4,0.01,Snow,Light Snow,80,2013-01-20 06:53:00
2:08 AM,10.4,8.6,92,29.84,1.2,East,11.5,19.6,0.00,Snow,Light Snow,80,2013-01-20 07:08:00
2:44 AM,10.4,8.6,92,29.80,1.5,East,13.8,20.7,0.01,Snow,Light Snow,90,2013-01-20 07:44:00
2:53 AM,10.9,8.1,88,29.85,1.2,East,13.8,20.7,0.01,Snow,Light Snow,80,2013-01-20 07:53:00
3:19 AM,12.2,8.6,85,29.77,1.5,East,13.8,20.7,0.00,Snow,Light Snow,90,2013-01-20 08:19:00
3:25 AM,12.2,8.6,85,29.77,2.0,East,13.8,18.4,0.00,Snow,Light Snow,90,2013-01-20 08:25:00
3:36 AM,12.2,8.6,85,29.76,6.0,East,12.7,18.4,0.00,Snow,Light Snow,80,2013-01-20 08:36:00
3:53 AM,12.0,10.0,92,29.80,7.0,East,12.7,18.4,0.00,Snow,Light Snow,90,2013-01-20 08:53:00
4:04 AM,12.2,10.4,92,29.75,3.0,East,11.5,-,0.00,Snow,Light Snow,100,2013-01-20 09:04:00
4:10 AM,14.0,10.4,86,29.74,1.8,ESE,13.8,-,0.00,Snow,Light Snow,110,2013-01-20 09:10:00
4:16 AM,14.0,10.4,86,29.74,1.2,ESE,15.0,-,0.00,Snow,Light Snow,110,2013-01-20 09:16:00
4:31 AM,14.0,10.4,86,29.74,0.8,ESE,17.3,24.2,0.00,Snow,Light Snow,120,2013-01-20 09:31:00
4:53 AM,14.0,10.9,88,29.78,0.5,ESE,15.0,-,0.00,Fog-Snow,Snow,120,2013-01-20 09:53:00
5:38 AM,14.0,10.4,86,29.68,0.8,ESE,12.7,-,0.01,Snow,Light Snow,120,2013-01-20 10:38:00
5:50 AM,14.0,10.4,86,29.67,1.0,ESE,15.0,-,0.01,Snow,Light Snow,120,2013-01-20 10:50:00
5:53 AM,14.0,10.9,88,29.72,1.0,ESE,13.8,-,0.01,Snow,Light Snow,120,2013-01-20 10:53:00
6:09 AM,15.8,10.4,79,29.65,1.5,ESE,16.1,-,0.00,Snow,Light Snow,120,2013-01-20 11:09:00
6:16 AM,15.8,10.4,79,29.65,2.0,ESE,13.8,21.9,0.00,Snow,Light Snow,120,2013-01-20 11:16:00
6:34 AM,15.8,12.2,86,29.63,4.0,ESE,11.5,20.7,0.00,Snow,Light Snow,110,2013-01-20 11:34:00
6:53 AM,15.1,12.0,88,29.66,4.0,ESE,16.1,24.2,0.00,Snow,Light Snow,120,2013-01-20 11:53:00
7:29 AM,15.8,12.2,86,29.55,2.0,ESE,16.1,21.9,0.00,Snow,Light Snow,120,2013-01-20 12:29:00
7:37 AM,15.8,12.2,86,29.55,1.5,ESE,13.8,21.9,0.00,Snow,Light Snow,120,2013-01-20 12:37:00
7:44 AM,15.8,12.2,86,29.54,2.0,ESE,15.0,-,0.00,Snow,Light Snow,110,2013-01-20 12:44:00
7:53 AM,16.0,12.9,88,29.58,3.0,ESE,16.1,21.9,0.00,Snow,Light Snow,110,2013-01-20 12:53:00
8:06 AM,15.8,12.2,86,29.52,2.5,ESE,15.0,20.7,0.00,Snow,Light Snow,110,2013-01-20 13:06:00
8:33 AM,17.6,14.0,86,29.48,3.0,ESE,16.1,20.7,0.00,Snow,Light Snow,120,2013-01-20 13:33:00
8:53 AM,17.1,14.0,88,29.50,10.0,ESE,16.1,23.0,0.00,,Overcast,110,2013-01-20 13:53:00
9:33 AM,17.6,15.8,93,29.42,1.8,ESE,13.8,-,0.00,Snow,Light Snow,120,2013-01-20 14:33:00
9:35 AM,17.6,15.8,93,29.42,1.2,ESE,15.0,-,0.00,Snow,Light Snow,120,2013-01-20 14:35:00
9:44 AM,17.6,15.8,93,29.41,0.5,ESE,12.7,-,0.00,Fog-Snow,Snow,120,2013-01-20 14:44:00
9:53 AM,18.0,16.0,92,29.45,0.5,ESE,13.8,-,0.01,Fog-Snow,Snow,120,2013-01-20 14:53:00
10:51 AM,19.4,17.6,93,29.34,1.0,ESE,8.1,-,0.03,Snow,Light Snow,120,2013-01-20 15:51:00
10:53 AM,19.9,18.0,92,29.38,1.0,SE,9.2,-,0.03,Snow,Light Snow,130,2013-01-20 15:53:00
11:05 AM,19.4,17.6,93,29.31,0.8,ESE,9.2,-,0.00,Snow,Light Snow,120,2013-01-20 16:05:00
11:28 AM,21.2,19.4,93,29.27,0.5,ESE,9.2,-,0.01,Fog-Snow,Snow,120,2013-01-20 16:28:00
11:48 AM,21.2,19.4,93,29.25,0.5,ESE,11.5,-,0.02,Fog-Snow,Light Snow,120,2013-01-20 16:48:00
11:53 AM,21.9,19.9,92,29.29,0.8,SE,12.7,-,0.02,Snow,Light Snow,130,2013-01-20 16:53:00
12:07 PM,21.2,19.4,93,29.26,1.0,South,5.8,-,0.00,Snow,Light Snow,170,2013-01-20 17:07:00
12:20 PM,21.2,19.4,93,29.25,0.2,SSE,10.4,-,0.00,Fog-Snow,Heavy Snow,150,2013-01-20 17:20:00
12:41 PM,21.2,21.2,100,29.22,1.5,SSE,11.5,-,0.01,Snow,Light Snow,150,2013-01-20 17:41:00
12:43 PM,21.2,21.2,100,29.22,2.0,SSE,11.5,-,0.01,Snow,Light Snow,150,2013-01-20 17:43:00
12:50 PM,23.0,21.2,93,29.21,3.0,SSE,12.7,-,0.01,,Overcast,150,2013-01-20 17:50:00
12:51 PM,23.0,21.0,92,29.26,3.0,SSE,12.7,-,0.01,,Overcast,150,2013-01-20 17:51:00
1:26 PM,24.8,21.2,86,29.20,10.0,South,10.4,-,N/A,,Overcast,170,2013-01-20 18:26:00
1:53 PM,25.0,23.0,92,29.23,9.0,South,12.7,-,N/A,,Overcast,170,2013-01-20 18:53:00
2:12 PM,26.6,24.8,93,29.19,1.5,South,6.9,-,0.00,Snow,Light Snow,190,2013-01-20 19:12:00
2:14 PM,26.6,24.8,93,29.20,0.8,South,8.1,-,0.00,Snow,Light Snow,190,2013-01-20 19:14:00
2:41 PM,26.6,24.8,93,29.20,1.5,South,4.6,-,0.01,Snow,Light Snow,180,2013-01-20 19:41:00
2:44 PM,26.6,24.8,93,29.20,3.0,South,6.9,-,0.01,Snow,Light Snow,180,2013-01-20 19:44:00
2:50 PM,26.6,24.8,93,29.20,2.0,South,9.2,-,0.01,Snow,Light Snow,190,2013-01-20 19:50:00
2:53 PM,27.0,25.0,92,29.25,0.5,South,11.5,16.1,0.01,Fog-Snow,Snow,190,2013-01-20 19:53:00
3:20 PM,28.4,26.6,93,29.20,1.0,South,11.5,21.9,0.02,Snow,Light Snow,190,2013-01-20 20:20:00
3:22 PM,28.4,26.6,93,29.20,3.0,South,9.2,21.9,0.02,Snow,Light Snow,180,2013-01-20 20:22:00
3:32 PM,28.4,26.6,93,29.20,8.0,South,8.1,16.1,0.02,,Overcast,180,2013-01-20 20:32:00
3:53 PM,28.0,27.0,96,29.25,9.0,South,5.8,-,0.02,,Overcast,190,2013-01-20 20:53:00
3:57 PM,28.4,26.6,93,29.22,1.5,SSW,11.5,17.3,0.00,Snow,Light Snow,200,2013-01-20 20:57:00
4:04 PM,28.4,26.6,93,29.23,0.2,WSW,15.0,23.0,0.01,Fog-Snow,Snow,250,2013-01-20 21:04:00
4:12 PM,30.2,26.6,86,29.22,1.0,WSW,18.4,31.1,0.01,Snow,Light Snow,250,2013-01-20 21:12:00
4:14 PM,30.2,26.6,86,29.22,2.0,WSW,13.8,31.1,0.01,Snow,Light Snow,250,2013-01-20 21:14:00
4:17 PM,30.2,24.8,80,29.22,6.0,WSW,19.6,28.8,0.01,,Haze,250,2013-01-20 21:17:00
4:29 PM,28.4,21.2,74,29.23,7.0,WSW,19.6,32.2,0.01,,Mostly Cloudy,250,2013-01-20 21:29:00
4:53 PM,28.0,19.9,72,29.28,10.0,WSW,19.6,28.8,0.01,,Clear,250,2013-01-20 21:53:00
5:53 PM,27.0,18.0,69,29.29,8.0,WSW,19.6,31.1,0.00,,Clear,240,2013-01-20 22:53:00
6:53 PM,25.0,16.0,69,29.34,3.0,WSW,21.9,41.4,0.00,,Mostly Cloudy,240,2013-01-20 23:53:00
7:39 PM,21.2,14.0,74,29.34,1.5,WSW,26.5,43.7,0.00,Snow,Light Snow,240,2013-01-21 00:39:00
7:42 PM,21.2,15.8,80,29.34,0.8,WSW,26.5,41.4,0.00,Snow,Light Snow,240,2013-01-21 00:42:00
7:53 PM,19.9,15.1,81,29.40,0.8,WSW,21.9,33.4,0.00,Snow,Light Snow,250,2013-01-21 00:53:00
7:56 PM,19.4,12.2,74,29.36,1.5,WSW,26.5,39.1,0.00,Snow,Light Snow,250,2013-01-21 00:56:00
8:06 PM,17.6,8.6,68,29.37,0.8,WSW,28.8,46.0,0.00,Snow,Light Snow,250,2013-01-21 01:06:00
8:17 PM,15.8,8.6,73,29.38,0.8,West,20.7,44.9,0.00,Snow,Light Snow,260,2013-01-21 01:17:00
8:25 PM,14.0,6.8,73,29.40,1.5,West,20.7,40.3,0.00,Snow,Light Snow,260,2013-01-21 01:25:00
8:31 PM,12.2,3.2,67,29.41,2.0,WSW,28.8,40.3,0.00,Snow,Light Snow,250,2013-01-21 01:31:00
8:48 PM,10.4,1.4,67,29.43,4.0,WSW,23.0,33.4,0.00,,Mostly Cloudy,250,2013-01-21 01:48:00
8:53 PM,10.0,-0.0,64,29.49,3.0,West,20.7,34.5,0.00,,Mostly Cloudy,260,2013-01-21 01:53:00
9:28 PM,6.8,-2.2,67,29.46,2.0,West,28.8,40.3,0.00,,Mostly Cloudy,260,2013-01-21 02:28:00
9:34 PM,6.8,-2.2,67,29.46,1.8,WSW,33.4,44.9,0.00,,Mostly Cloudy,250,2013-01-21 02:34:00
9:44 PM,5.0,-2.2,72,29.47,1.5,WSW,29.9,44.9,0.00,,Overcast,250,2013-01-21 02:44:00
9:53 PM,3.9,-2.9,73,29.53,1.2,West,31.1,42.6,0.00,Snow,Light Snow,260,2013-01-21 02:53:00
10:15 PM,1.4,-5.8,72,29.50,1.8,West,23.0,40.3,0.00,,Mostly Cloudy,260,2013-01-21 03:15:00
10:21 PM,1.4,-7.6,66,29.51,2.5,West,20.7,40.3,0.00,,Scattered Clouds,270,2013-01-21 03:21:00
10:28 PM,1.4,-7.6,66,29.52,9.0,WSW,19.6,29.9,0.00,,Partly Cloudy,250,2013-01-21 03:28:00
10:53 PM,1.0,-9.0,63,29.59,7.0,West,21.9,29.9,0.00,,Mostly Cloudy,260,2013-01-21 03:53:00
11:18 PM,-0.4,-9.4,66,29.54,9.0,WSW,19.6,27.6,N/A,,Overcast,250,2013-01-21 04:18:00
11:53 PM,-0.0,-9.9,63,29.59,10.0,West,13.8,20.7,N/A,,Overcast,270,2013-01-21 04:53:00